[[{"header":{"parameterUnit":"m.s-1","parameterCategory":1,"la1":30.2991,"la2":30.254,"lo1":-89.0895,"lo2":-89.0444,"dy":0.0017,"dx":0.0017,"nx":28,"ny":28,"refTime":"2024-09-29T21:00:00:Z","depth":0,"parameterNumber":2,"parameterNumberName":"U-component_of_WINDS"},"data":[0,0,0,0,0,0,0,0,0,0,0,0,0,0,0,0,0,0,0,0,0,0,0,0,0,0,0,0,0,0,0,0,0,0,0,0,0,0,0,0,0,0,0,0,0,0,0,0,0,0,0,0,0,0,0,0,0,0,0.841,0.8411,0,0.8452,0.8453,0.8453,0.842,0.8418,0.8417,0.8415,0.8459,0.8462,0.8464,0,0,0,0,0,0,0,0,0,0,0,0,0,0.8305,0.8307,0.841,0.8411,0.8411,0.8452,0.8453,0.8453,0.842,0.8418,0.8416,0.8415,0.8459,0.8462,0.8465,0,0,0,0,0,0,0,0,0,0,0,0,0,0.8349,0.8307,0.841,0.84,0.8399,0.8452,0.8453,0.8453,0.842,0.8418,0.8416,0.8414,0.8458,0.8461,0.8465,0.8531,0,0,0.8476,0.8478,0,0,0,0,0,0,0,0,0.8347,0.8353,0.8401,0.84,0.84,0.8428,0.8431,0.8479,0.8421,0.8412,0.8415,0.8413,0.8451,0.8455,0.8468,0.8533,0.8535,0.8477,0.8479,0.8481,0.8482,0,0,0,0,0,0,0,0.8343,0.8351,0.8427,0.8401,0.8401,0.8394,0.8398,0.844,0.8443,0.8413,0.841,0.8416,0.845,0.8464,0.8468,0.8535,0.8477,0.848,0.8482,0.8484,0.866,0.8662,0,0,0,0,0,0,0.8341,0.8349,0.8426,0.8428,0.8367,0.8397,0.8402,0.8421,0.8443,0.8444,0.8418,0.8414,0.8459,0.8464,0.847,0.8551,0.8481,0.8484,0.8486,0.8658,0.8661,0.8663,0,0,0,0,0,0,0.8339,0.8348,0.8424,0.8388,0.8397,0.8401,0.8424,0.8423,0.8437,0.8446,0.8447,0.8431,0.8457,0.8465,0.8517,0.8552,0.8486,0.8489,0.8655,0.8659,0.8662,0.8711,0,0,0,0,0,0,0.8336,0.8348,0.8372,0.8389,0.8399,0.8469,0.8426,0.8426,0.8444,0.8439,0.8459,0.846,0.8456,0.8511,0.852,0.8556,0.8492,0.8652,0.8656,0.8661,0.8707,0.8716,0.8724,0,0,0,0,0,0.8332,0.8384,0.8373,0.8383,0.8429,0.8471,0.8477,0.8471,0.8446,0.8472,0.8478,0.8459,0.8546,0.8517,0.8527,0.8564,0.8649,0.8655,0.866,0.8703,0.8714,0.8724,0,0,0,0,0,0,0.8371,0.8386,0.8374,0.8432,0.8451,0.8465,0.8497,0.8483,0.8509,0.8505,0.8497,0.8501,0.8557,0.8565,0.8532,0.863,0.8594,0.8602,0.8623,0.8634,0.8643,0.864,0.8495,0,0,0,0,0,0.8386,0.8418,0.843,0.848,0.849,0.8492,0.851,0.8504,0.8523,0.8531,0.854,0.856,0.8592,0.8613,0.8643,0.8707,0.8713,0.8738,0.8747,0.8754,0.8761,0.8799,0.8811,0.8681,0.8681,0.8681,0,0,0.8418,0.843,0.8451,0.8488,0.8502,0.8537,0.8499,0.8536,0.8563,0.8536,0.8587,0.8595,0.8616,0.8676,0.8702,0.8685,0.8798,0.8761,0.8767,0.877,0.8806,0.8818,0.8829,0.8685,0.8684,0.8684,0,0,0.8495,0.8506,0.855,0.8565,0.8586,0.8588,0.8599,0.8616,0.862,0.867,0.8652,0.8684,0.8738,0.8755,0.8771,0.8856,0.8841,0.8866,0.8913,0.895,0.896,0.8969,0.9002,0.9014,0.8873,0.8873,0.8873,0,0.8532,0.8583,0.8575,0.8615,0.8633,0.8611,0.8657,0.8672,0.8702,0.8715,0.8695,0.8765,0.8777,0.8842,0.8863,0.8875,0.8889,0.8864,0.8959,0.8968,0.8977,0.9008,0.902,0.8876,0.8876,0.8876,0.8875,0,0.8628,0.8664,0.8698,0.8728,0.875,0.8792,0.8792,0.8815,0.8808,0.8812,0.8865,0.888,0.8914,0.8928,0.8921,0.8993,0.8981,0.896,0.8924,0.8992,0.9022,0.9033,0.8881,0.888,0.8879,0.8878,0,0,0.873,0.8756,0.8769,0.8784,0.8806,0.8835,0.8877,0.891,0.8931,0.8953,0.899,0.9038,0.9019,0.9037,0.9032,0.9064,0.9134,0.904,0.904,0.9059,0.9217,0.9234,0.9248,0.9124,0.9126,0.9128,0.9216,0,0.8809,0.8883,0.8878,0.8948,0.8983,0.8963,0.9001,0.902,0.9026,0.9056,0.9062,0.9097,0.9069,0.908,0.9111,0.9119,0.9166,0.9113,0.916,0.9162,0.9157,0.9263,0.928,0.9363,0.9227,0.9229,0.9231,0,0.891,0.8937,0.9011,0.9031,0.9045,0.9079,0.911,0.9139,0.9161,0.9163,0.9184,0.9175,0.922,0.9182,0.9245,0.9209,0.9228,0.9235,0.9238,0.9244,0.9202,0.9273,0.9388,0.9402,0.9248,0.9247,0.9245,0,0.898,0.9033,0.9085,0.9098,0.9122,0.9147,0.9158,0.9178,0.9199,0.9226,0.924,0.9273,0.9291,0.9317,0.9317,0.9289,0.9382,0.9343,0.9387,0.9387,0.9408,0.9407,0.953,0.9418,0.9417,0.9417,0.9417,0,0.9069,0.9116,0.9117,0.9149,0.9201,0.9196,0.9249,0.9257,0.9276,0.931,0.9295,0.9328,0.9325,0.9359,0.936,0.9414,0.9421,0.9426,0.9425,0.9428,0.9428,0.9442,0.9437,0.942,0.942,0.9419,0.9419,0,0.9156,0.9158,0.9214,0.9233,0.9239,0.9277,0.9293,0.9325,0.9329,0.9374,0.9384,0.9391,0.9431,0.9433,0.9478,0.9479,0.9545,0.9537,0.9538,0.9537,0.9581,0.9578,0.9719,0.9738,0.9611,0.9612,0.9613,0,0.9214,0.9249,0.9272,0.9294,0.9307,0.9343,0.9365,0.9362,0.9385,0.9414,0.9443,0.9481,0.9511,0.9575,0.9586,0.9621,0.9616,0.9663,0.9621,0.9623,0.9619,0.9618,0.9622,0.9671,0.9672,0.9674,0.9675,0,0.9317,0.9317,0.9348,0.9381,0.9408,0.9433,0.9457,0.9477,0.9477,0.9504,0.9544,0.9568,0.9615,0.9654,0.9689,0.9702,0.969,0.9688,0.97,0.9704,0.9703,0.9707,0.9562,0.9685,0.9684,0.9683,0.9682,0.9682,0.9392,0.9424,0.9446,0.9482,0.95,0.9524,0.9555,0.9564,0.9597,0.9635,0.9632,0.9677,0.9701,0.9746,0.9762,0.9799,0.9783,0.98,0.9805,0.981,0.9815,0.9696,0.9805,0.9804,0.9804,0.9804,0.9804,0,0.9497,0.951,0.9544,0.9578,0.9608,0.9593,0.9619,0.9645,0.9685,0.9708,0.9739,0.9786,0.9825,0.9839,0.9876,0.9903,0.9898,0.9913,0.9912,0.9916,0.9826,0.9813,0.9916,0.9916,0.9916,0.9916,0.9916,0.9916,0.9555,0.9608,0.9611,0.9675,0.9688,0.9732,0.9749,0.9771,0.979,0.9844,0.9876,0.9884,0.9905,0.9944,0.9979,0.9982,0.9998,1.0016,1.0017,0.9933,0.9922,0.9911,0.9899,1.0019,1.0019,1.0104,1.0105,1.0105]},{"header":{"parameterUnit":"m.s-1","parameterCategory":1,"la1":30.2991,"la2":30.254,"lo1":-89.0895,"lo2":-89.0444,"dy":0.0017,"dx":0.0017,"nx":28,"ny":28,"refTime":"2024-09-29T21:00:00:Z","depth":0,"parameterNumber":3,"parameterNumberName":"V-component_of_WINDS"},"data":[0,0,0,0,0,0,0,0,0,0,0,0,0,0,0,0,0,0,0,0,0,0,0,0,0,0,0,0,0,0,0,0,0,0,0,0,0,0,0,0,0,0,0,0,0,0,0,0,0,0,0,0,0,0,0,0,0,0,-2.2427,-2.2427,0,-2.2395,-2.2395,-2.2394,-2.2365,-2.2365,-2.2365,-2.2364,-2.2331,-2.233,-2.233,0,0,0,0,0,0,0,0,0,0,0,0,0,-2.2461,-2.2461,-2.2427,-2.2427,-2.2426,-2.2395,-2.2395,-2.2394,-2.2365,-2.2365,-2.2365,-2.2364,-2.2331,-2.233,-2.233,0,0,0,0,0,0,0,0,0,0,0,0,0,-2.244,-2.2461,-2.2427,-2.2408,-2.2406,-2.2395,-2.2395,-2.2394,-2.2366,-2.2365,-2.2364,-2.2364,-2.2331,-2.233,-2.233,-2.2335,0,0,-2.2327,-2.2327,0,0,0,0,0,0,0,0,-2.2441,-2.2438,-2.2411,-2.2409,-2.2407,-2.2384,-2.2395,-2.2374,-2.2366,-2.2381,-2.2364,-2.2364,-2.2349,-2.2347,-2.2342,-2.2333,-2.2332,-2.2327,-2.2326,-2.2326,-2.2326,0,0,0,0,0,0,0,-2.2442,-2.244,-2.2414,-2.2411,-2.2408,-2.2401,-2.2397,-2.2391,-2.2368,-2.238,-2.2377,-2.2374,-2.2348,-2.2343,-2.2341,-2.2331,-2.2327,-2.2326,-2.2326,-2.2325,-2.2324,-2.2324,0,0,0,0,0,0,-2.2447,-2.2441,-2.2415,-2.2413,-2.2423,-2.24,-2.2396,-2.2392,-2.2368,-2.2364,-2.2374,-2.2373,-2.2344,-2.2342,-2.2339,-2.2343,-2.2326,-2.2325,-2.2325,-2.2323,-2.2324,-2.2324,0,0,0,0,0,0,-2.2448,-2.2445,-2.2417,-2.2427,-2.2422,-2.24,-2.2395,-2.2391,-2.2386,-2.2364,-2.236,-2.2374,-2.2344,-2.2341,-2.2336,-2.2341,-2.2325,-2.2324,-2.2323,-2.2323,-2.2324,-2.235,0,0,0,0,0,0,-2.2449,-2.2446,-2.2448,-2.2427,-2.2422,-2.2414,-2.2396,-2.2391,-2.2385,-2.2382,-2.2362,-2.2359,-2.2343,-2.2337,-2.2335,-2.234,-2.2324,-2.2322,-2.2323,-2.2324,-2.2349,-2.2352,-2.2354,0,0,0,0,0,-2.245,-2.2457,-2.2448,-2.2445,-2.2424,-2.2415,-2.2412,-2.2394,-2.2386,-2.2387,-2.2373,-2.2359,-2.2341,-2.2337,-2.2334,-2.2339,-2.2322,-2.2323,-2.2324,-2.2347,-2.2351,-2.2354,0,0,0,0,0,0,-2.2478,-2.2453,-2.2444,-2.2443,-2.2431,-2.241,-2.2411,-2.2399,-2.2389,-2.2387,-2.2365,-2.2361,-2.2358,-2.2348,-2.2344,-2.2342,-2.2329,-2.233,-2.2348,-2.2351,-2.2354,-2.2356,-2.2323,0,0,0,0,0,-2.2485,-2.2479,-2.2458,-2.2459,-2.2454,-2.2434,-2.2429,-2.2416,-2.2403,-2.2398,-2.2383,-2.237,-2.2361,-2.2356,-2.2347,-2.2347,-2.2341,-2.2349,-2.2351,-2.2354,-2.2354,-2.2352,-2.2354,-2.2328,-2.2328,-2.2328,0,0,-2.2497,-2.2483,-2.2481,-2.2465,-2.2454,-2.2448,-2.243,-2.2425,-2.242,-2.2397,-2.2391,-2.238,-2.2364,-2.2361,-2.2359,-2.2353,-2.236,-2.2355,-2.2357,-2.2356,-2.2353,-2.2356,-2.2358,-2.2329,-2.2328,-2.2328,0,0,-2.2517,-2.2506,-2.2506,-2.2495,-2.2479,-2.2466,-2.2466,-2.2446,-2.2437,-2.2431,-2.2413,-2.2407,-2.2393,-2.2382,-2.2374,-2.2389,-2.2375,-2.2387,-2.24,-2.2399,-2.2401,-2.2402,-2.2406,-2.2408,-2.2387,-2.2387,-2.2387,0,-2.2535,-2.2526,-2.2507,-2.2503,-2.2496,-2.2475,-2.2473,-2.2464,-2.2446,-2.2441,-2.2434,-2.2414,-2.2402,-2.2396,-2.2399,-2.2395,-2.2393,-2.2388,-2.2402,-2.2403,-2.2405,-2.2408,-2.241,-2.2389,-2.2388,-2.2388,-2.2388,0,-2.2547,-2.2541,-2.2543,-2.2526,-2.2519,-2.2516,-2.2496,-2.2491,-2.2479,-2.2466,-2.246,-2.2444,-2.2431,-2.2429,-2.2417,-2.242,-2.2416,-2.2406,-2.2393,-2.2409,-2.2412,-2.2413,-2.2391,-2.239,-2.239,-2.2389,0,0,-2.2584,-2.2556,-2.2557,-2.2548,-2.2528,-2.2523,-2.2519,-2.2506,-2.2501,-2.2489,-2.2484,-2.2472,-2.2462,-2.2454,-2.244,-2.2439,-2.2449,-2.2428,-2.2427,-2.2432,-2.245,-2.2458,-2.246,-2.2441,-2.2441,-2.2441,-2.2451,0,-2.26,-2.2591,-2.2574,-2.2571,-2.2564,-2.2544,-2.254,-2.2527,-2.2515,-2.2507,-2.2493,-2.2484,-2.2472,-2.2466,-2.2464,-2.2449,-2.2453,-2.2448,-2.2435,-2.2434,-2.2438,-2.2461,-2.2469,-2.248,-2.2452,-2.2453,-2.2453,0,-2.2617,-2.2606,-2.2602,-2.2581,-2.2578,-2.2575,-2.2561,-2.2554,-2.2538,-2.2529,-2.2519,-2.2505,-2.2498,-2.2487,-2.2477,-2.2474,-2.2467,-2.2459,-2.2459,-2.2456,-2.2444,-2.2458,-2.2483,-2.2484,-2.2455,-2.2454,-2.2454,0,-2.2642,-2.2626,-2.2621,-2.2615,-2.2591,-2.2589,-2.2579,-2.2563,-2.2556,-2.2544,-2.2539,-2.2526,-2.2519,-2.2508,-2.249,-2.2484,-2.2481,-2.2469,-2.2473,-2.2473,-2.2472,-2.2473,-2.2496,-2.247,-2.247,-2.247,-2.247,0,-2.266,-2.2659,-2.2632,-2.2629,-2.2626,-2.2606,-2.2604,-2.2592,-2.2577,-2.2571,-2.2553,-2.2547,-2.2523,-2.2515,-2.25,-2.2493,-2.249,-2.2482,-2.2478,-2.2483,-2.2484,-2.2478,-2.2476,-2.247,-2.247,-2.247,-2.247,0,-2.2688,-2.2671,-2.2664,-2.2642,-2.2636,-2.2635,-2.2616,-2.2612,-2.2598,-2.259,-2.2587,-2.2565,-2.2554,-2.2535,-2.2518,-2.2508,-2.2503,-2.2497,-2.2508,-2.2506,-2.251,-2.2509,-2.2529,-2.253,-2.2505,-2.2505,-2.2506,0,-2.27,-2.2698,-2.2676,-2.2671,-2.2662,-2.2653,-2.2646,-2.2626,-2.2619,-2.26,-2.2598,-2.2585,-2.2574,-2.2556,-2.2538,-2.2525,-2.2517,-2.2525,-2.2515,-2.252,-2.2516,-2.2516,-2.2515,-2.2527,-2.2528,-2.2528,-2.2528,0,-2.2724,-2.2715,-2.2706,-2.2693,-2.2684,-2.2673,-2.2661,-2.2657,-2.2634,-2.2627,-2.2615,-2.2606,-2.2589,-2.2576,-2.2559,-2.2548,-2.2534,-2.2532,-2.2531,-2.2536,-2.2542,-2.2538,-2.2513,-2.2531,-2.2531,-2.2531,-2.253,-2.253,-2.2743,-2.274,-2.2724,-2.2713,-2.2702,-2.2691,-2.2686,-2.2671,-2.2661,-2.2645,-2.2634,-2.2623,-2.2606,-2.2583,-2.2572,-2.2562,-2.2556,-2.2556,-2.2556,-2.2556,-2.2557,-2.2545,-2.2559,-2.2559,-2.2559,-2.2559,-2.2559,0,-2.2765,-2.2753,-2.2744,-2.2727,-2.2719,-2.2707,-2.2692,-2.2686,-2.2676,-2.2662,-2.2651,-2.2637,-2.2624,-2.2605,-2.259,-2.2585,-2.2578,-2.2582,-2.2582,-2.2579,-2.2564,-2.2565,-2.2588,-2.2588,-2.2588,-2.2588,-2.2588,-2.2588,-2.2775,-2.2769,-2.2758,-2.2745,-2.2734,-2.2723,-2.2715,-2.2704,-2.2693,-2.2678,-2.2667,-2.2655,-2.2638,-2.2622,-2.2609,-2.2603,-2.2598,-2.2604,-2.2596,-2.2583,-2.258,-2.2578,-2.2578,-2.2603,-2.2603,-2.2612,-2.2612,-2.2612]}]]